RH
24 23 22 22 21 20 18 16 15 15 14 14 13 13 13 13 13 14 14 14 14 15 14 14 13 12 12 12 12 12 13 13 13 13 12 10 10 10 11 12 13 14 14 14 15 15 17 20 25 28 31 33 33 34 33 33 35 38 40 39 38 40 40 39 36 34 38 41 40 40 36 33 35 40 45 39 38 47 50 50 52 55 55 54 59 59 53 52
23 22 21 19 18 16 15 15 15 15 15 15 15 14 14 14 14 13 13 14 14 14 14 14 14 13 12 11 11 11 11 12 12 12 13 14 12 11 12 14 14 14 14 13 14 14 15 17 19 23 27 30 31 33 35 33 32 32 35 36 34 36 37 38 37 35 36 39 39 42 42 37 36 40 43 40 40 47 53 55 53 54 57 58 59 58 53 50
20 19 19 17 16 15 15 15 15 15 15 15 15 15 14 14 14 13 14 13 13 13 14 14 14 13 12 11 10 9 10 11 11 13 15 16 15 14 15 16 15 14 14 14 13 13 14 15 16 18 22 26 29 32 35 35 33 31 32 31 30 32 34 35 35 35 35 36 37 41 43 41 40 40 42 42 40 46 54 56 55 55 58 60 58 57 54 51
18 17 16 16 16 16 16 16 16 16 15 15 14 14 14 13 13 13 14 14 14 14 14 14 14 14 13 11 9 8 9 8 10 15 16 16 16 17 18 17 17 16 14 14 14 14 13 14 15 16 19 22 25 30 33 33 33 32 31 28 27 29 32 35 34 34 35 36 37 40 43 44 44 43 42 41 39 42 49 51 51 52 54 60 62 60 58 54
16 16 16 16 17 17 17 18 17 17 16 15 14 13 13 13 13 13 14 15 16 16 15 15 15 15 15 13 10 9 8 7 14 19 18 18 17 18 19 19 18 17 15 14 15 15 14 14 15 16 19 21 23 25 27 29 32 33 30 28 28 29 30 33 34 34 35 37 38 39 41 43 45 47 44 41 37 37 45 48 47 48 50 55 59 59 58 55
16 16 16 16 17 17 17 17 18 18 17 15 15 14 14 14 14 15 17 18 19 20 19 18 18 16 16 15 12 10 9 9 16 19 17 15 15 18 19 19 19 18 16 15 16 16 17 17 17 17 19 21 22 22 22 26 31 32 29 27 28 29 28 29 32 34 36 38 39 38 38 39 44 49 47 42 37 34 40 45 46 48 47 49 54 55 54 53
16 16 17 17 17 17 17 18 18 18 18 17 16 16 16 17 18 19 20 21 22 23 22 21 22 21 19 17 13 12 12 10 11 12 11 12 14 16 16 15 16 16 16 16 17 17 17 18 18 19 20 21 21 21 21 23 27 28 25 27 30 29 28 28 30 33 37 39 40 38 37 39 42 46 47 43 37 36 39 42 43 46 48 49 52 54 53 51
18 19 19 19 19 19 19 20 19 19 19 18 17 18 19 20 20 20 21 21 22 23 23 22 23 24 22 19 15 15 15 13 12 10 11 14 14 12 12 12 12 13 13 14 16 17 17 18 19 19 20 21 20 20 21 21 23 23 22 26 30 30 29 29 31 35 38 39 40 39 38 38 40 43 46 43 39 39 39 41 41 43 50 51 51 53 53 54
21 21 21 22 21 21 21 21 20 19 18 17 18 20 20 20 21 22 22 22 22 22 22 23 25 26 24 20 19 19 16 14 15 13 13 15 13 11 11 11 12 11 11 11 13 15 16 18 19 19 20 20 19 19 20 21 21 21 21 25 29 30 30 30 31 34 37 38 38 38 36 35 38 42 44 42 41 41 39 40 41 43 51 51 50 53 53 55
21 21 21 22 22 21 21 21 20 19 18 18 20 21 21 22 23 25 25 24 24 23 23 25 26 27 26 22 22 24 19 16 17 15 14 14 12 12 12 11 12 12 11 10 10 12 13 15 17 19 20 18 19 19 20 21 20 19 21 22 25 29 31 31 31 31 33 36 37 36 32 32 36 41 41 39 40 42 41 40 40 44 49 49 50 54 56 55
22 21 21 22 21 21 21 20 20 19 19 21 22 22 23 24 24 24 24 23 23 23 23 24 24 24 25 24 26 27 20 19 21 19 16 14 14 13 13 13 12 12 12 11 9 9 10 12 14 16 19 20 20 19 19 20 19 18 20 22 23 25 28 30 30 30 31 33 35 34 31 31 36 38 36 36 39 40 42 43 44 47 48 48 48 51 55 54
22 21 21 21 21 21 21 21 20 20 22 24 23 23 24 24 24 23 22 22 22 22 21 21 20 22 25 26 26 25 20 21 23 22 21 19 18 15 15 15 14 14 14 13 10 8 9 10 11 12 16 20 21 21 20 19 19 19 20 24 23 22 25 27 28 29 30 30 31 35 35 32 33 33 32 35 37 39 40 42 48 52 51 51 50 47 49 52
21 21 21 21 21 21 21 21 21 22 24 25 22 22 24 25 24 24 23 23 22 21 21 22 21 23 27 25 21 20 20 21 21 21 22 21 20 18 17 18 17 17 16 15 12 9 10 10 10 10 12 15 18 21 22 20 19 20 22 25 24 24 24 23 24 26 28 27 28 36 39 32 28 28 30 34 35 37 38 40 47 53 54 53 52 47 47 51
21 21 20 20 20 20 21 21 22 25 26 25 23 23 26 27 26 24 24 23 22 22 23 25 26 28 30 24 18 19 19 19 21 21 21 20 19 19 18 19 19 19 17 16 13 11 11 11 11 10 10 11 14 18 21 23 24 23 25 26 25 26 24 20 21 23 25 25 26 36 39 29 25 26 29 34 34 35 37 37 42 48 51 51 51 50 49 53
20 20 20 20 20 21 22 22 24 27 27 25 24 24 26 28 25 23 24 24 24 26 26 28 30 32 33 27 20 22 21 21 22 22 22 22 21 20 19 19 20 20 19 17 15 14 13 13 12 11 11 10 11 14 18 24 29 29 27 26 27 27 23 20 21 21 22 22 26 34 35 27 24 24 28 34 35 35 37 37 40 44 48 51 52 53 52 54
19 19 20 20 20 22 22 23 27 29 28 27 27 25 25 26 24 24 25 27 27 28 29 32 33 33 35 31 25 26 28 28 28 27 26 25 24 24 22 21 21 21 21 19 18 17 16 14 13 12 12 11 12 13 16 21 28 32 32 29 27 26 24 22 21 20 20 21 26 33 30 24 23 23 27 34 35 36 37 38 43 48 51 55 55 54 54 52
20 19 19 20 21 22 23 25 29 30 29 29 27 25 23 22 24 26 27 28 28 29 31 33 35 34 34 31 28 30 31 32 34 33 32 30 28 26 25 25 24 24 23 22 21 19 18 17 15 15 13 13 15 16 20 24 26 29 33 33 29 27 26 25 22 20 21 23 28 32 28 22 22 23 27 33 35 36 37 38 45 51 55 57 55 52 53 51
20 19 19 20 21 22 24 27 31 31 31 30 27 24 22 21 25 28 29 30 29 30 33 34 34 34 33 29 29 32 32 33 34 35 36 35 33 31 28 26 25 25 23 23 22 22 22 20 19 20 17 15 16 18 22 20 17 20 27 34 34 31 30 29 26 22 22 24 29 32 26 20 22 26 27 31 34 36 37 37 43 51 56 57 55 52 52 52
20 20 19 20 21 23 26 29 31 32 33 30 25 23 22 23 28 30 30 31 32 33 34 35 34 32 30 26 28 33 34 35 35 35 36 36 36 36 32 27 25 24 23 24 25 25 25 25 25 24 21 17 15 16 17 14 15 20 25 30 34 35 33 30 27 24 23 25 29 31 25 20 22 26 28 30 33 35 35 37 42 48 53 56 55 52 51 52
20 20 19 20 22 25 28 31 32 34 34 31 26 24 26 29 34 35 32 30 32 33 32 32 33 33 30 27 30 35 36 36 36 37 37 36 36 37 35 32 28 26 25 26 29 28 29 31 31 26 22 19 18 17 16 16 19 23 24 27 30 34 35 32 28 24 24 27 29 28 24 20 21 24 26 28 31 35 35 37 42 45 50 54 52 51 51 51
21 21 20 20 23 26 30 32 33 36 35 32 28 27 32 36 38 39 37 33 31 31 32 31 33 35 32 31 34 38 39 38 38 39 39 39 37 36 37 35 32 33 32 31 32 31 30 33 31 25 24 24 25 24 21 20 22 23 24 26 27 31 34 34 32 28 26 29 30 27 23 20 21 23 24 26 29 33 34 36 41 43 46 50 50 48 48 48
22 21 20 21 24 27 31 33 35 37 36 32 29 30 36 40 39 41 41 39 34 31 34 34 34 35 32 34 39 42 45 44 40 38 39 42 40 37 37 36 35 36 35 34 34 35 33 30 25 23 28 31 32 30 27 25 24 24 24 25 25 25 28 31 33 31 29 31 31 28 25 21 21 23 24 26 27 28 30 34 38 40 44 49 50 49 46 46
24 22 21 22 25 29 33 35 37 38 36 32 30 33 38 42 42 42 42 44 40 34 36 36 35 35 33 37 41 45 50 49 43 38 37 41 41 37 35 34 35 34 32 33 34 36 33 25 21 26 32 34 34 32 31 30 28 26 24 24 23 21 24 29 31 32 32 32 31 29 27 23 23 24 25 29 27 25 27 30 33 37 41 45 45 45 45 46
25 23 21 23 26 30 34 37 38 39 36 32 32 35 40 43 45 46 44 45 45 40 37 36 36 37 35 36 40 44 50 49 44 40 38 40 41 38 33 32 33 33 33 33 33 34 28 21 22 27 30 31 32 32 33 34 33 29 25 24 22 19 21 24 27 31 34 34 32 30 29 25 25 26 26 29 30 27 26 28 31 34 37 38 38 41 44 45
25 23 23 24 27 31 36 39 40 40 36 33 34 36 40 45 47 49 47 46 47 45 39 35 39 41 37 37 40 42 46 46 44 42 40 41 42 40 37 35 34 36 37 35 35 33 25 21 25 27 28 30 32 32 33 34 35 33 28 24 21 19 19 21 23 30 39 41 33 31 33 27 25 27 25 25 28 27 25 25 29 30 32 36 37 40 42 43
25 24 24 26 29 33 39 41 42 41 36 34 35 36 41 46 49 50 49 49 49 46 41 38 41 43 39 41 44 41 43 45 43 44 43 42 43 42 42 41 38 38 40 39 37 33 26 24 25 25 26 28 30 32 32 32 34 34 30 24 21 19 18 20 21 27 41 43 33 32 37 31 28 29 26 24 25 26 25 24 26 26 29 33 36 39 39 41
25 24 26 28 32 37 40 42 44 42 38 36 35 37 41 45 50 51 51 54 52 45 43 42 42 42 41 43 43 42 46 45 41 44 44 44 44 42 44 46 45 42 41 42 39 32 27 27 26 26 26 27 28 29 30 31 32 33 29 25 24 21 19 20 22 27 35 37 34 35 37 36 35 31 27 26 25 24 25 25 24 24 25 28 31 37 39 38
25 25 27 30 35 39 41 44 46 44 40 37 36 38 41 45 51 52 53 56 51 44 45 45 41 40 41 43 42 43 46 46 46 47 44 46 46 44 45 46 48 48 45 45 41 33 30 32 32 32 31 29 25 23 25 29 31 30 27 26 24 23 22 20 22 27 29 34 39 38 38 41 40 33 28 28 26 24 24 24 23 21 21 23 25 30 35 37
26 26 29 33 37 40 42 45 47 45 42 38 37 37 41 47 50 53 60 59 50 48 50 49 44 41 40 39 41 44 47 49 51 50 47 49 48 47 48 47 48 51 49 46 42 37 36 36 35 36 33 28 23 20 22 27 30 28 26 26 24 24 23 21 25 26 28 38 43 38 38 43 42 34 29 29 27 24 22 20 20 18 17 19 22 25 30 34
27 28 31 36 39 41 43 47 48 46 42 40 38 37 42 49 50 59 68 62 55 55 56 54 51 47 43 41 44 46 49 53 54 53 53 53 51 50 49 51 53 55 56 53 45 41 41 40 39 38 33 29 26 25 24 27 28 26 26 25 25 26 24 24 25 23 30 42 40 34 38 42 44 38 31 29 27 23 21 19 18 17 16 17 18 20 24 30
28 30 34 38 40 42 44 47 50 48 42 40 39 37 41 47 53 66 70 61 61 64 64 63 58 53 50 49 51 51 52 57 58 60 61 57 56 56 53 56 61 64 65 60 52 49 47 45 41 38 36 35 32 29 26 27 28 29 29 30 31 32 28 28 29 31 41 44 32 29 36 42 44 38 31 28 24 22 22 20 18 18 17 16 16 17 19 25
30 32 36 39 41 43 45 48 50 48 44 41 40 38 41 47 56 68 69 66 71 73 73 73 66 61 58 55 57 57 58 63 66 68 68 63 62 61 60 64 68 73 73 65 62 60 55 51 47 43 42 41 39 34 28 27 30 35 38 41 45 43 39 40 38 40 44 36 26 26 34 44 43 34 29 27 22 21 22 21 19 19 18 17 17 16 18 22
32 35 38 41 43 44 45 48 50 49 46 43 41 39 41 49 58 66 71 74 76 75 79 81 75 70 68 62 61 61 62 66 71 73 72 70 72 68 64 67 70 74 75 69 67 65 60 56 51 50 48 42 40 37 31 27 31 42 47 49 51 48 49 51 44 42 40 30 24 24 34 47 42 32 30 26 21 20 19 20 20 18 18 17 16 16 17 20
32 37 39 42 45 45 45 48 50 51 49 45 44 43 45 51 58 65 73 76 75 77 82 87 85 80 75 70 65 61 62 66 70 74 75 76 80 76 69 67 65 66 71 71 68 66 68 63 54 53 49 42 38 34 30 26 29 43 49 47 47 44 47 48 43 41 36 27 22 24 41 53 43 34 31 25 23 21 18 19 19 18 18 17 16 17 18 20
32 37 42 44 46 46 45 48 51 52 50 47 48 50 53 58 61 66 73 74 75 80 83 86 91 90 85 78 71 64 64 68 68 72 78 79 81 81 75 68 61 57 62 69 68 65 68 64 57 56 48 40 36 31 27 28 36 48 50 45 44 40 40 42 41 37 30 29 28 27 43 51 39 34 32 26 26 24 20 19 17 18 18 17 17 17 19 22
33 38 44 45 46 48 46 47 51 52 51 51 52 56 60 61 61 65 71 71 73 78 82 83 88 92 91 87 81 72 69 74 71 71 78 80 80 80 73 65 62 57 55 60 60 55 54 55 55 54 46 38 35 32 31 32 44 58 58 52 46 38 35 39 41 37 32 42 42 30 36 41 33 32 30 27 28 27 25 22 17 17 16 16 17 17 19 23
35 38 45 46 46 49 48 48 51 51 51 54 57 61 64 62 59 62 67 67 70 78 83 84 85 90 92 91 90 80 75 79 76 72 76 80 81 79 71 65 62 59 55 52 52 51 49 50 53 51 45 40 37 37 37 35 44 60 63 58 49 40 37 36 39 42 44 54 51 36 35 37 34 35 31 28 31 29 27 24 19 17 15 15 16 15 18 21
37 40 46 47 47 48 49 49 49 49 53 57 60 62 65 64 59 58 61 62 68 77 85 87 88 90 92 92 92 85 79 82 79 73 74 79 81 79 74 69 63 60 58 53 53 57 54 50 52 51 48 47 43 40 42 40 43 56 61 56 51 49 45 37 38 45 50 59 58 44 38 35 35 37 32 29 30 27 26 24 20 17 15 15 15 16 18 19
40 43 48 49 48 48 49 49 48 49 55 60 62 62 64 65 62 59 60 62 66 75 83 87 89 93 94 92 93 89 83 82 81 77 75 75 80 83 78 71 64 61 62 59 57 62 64 61 61 57 55 58 52 44 43 43 45 54 58 53 51 55 53 44 40 42 48 59 62 53 47 43 39 35 31 30 31 28 26 24 21 18 15 15 15 16 18 18
41 46 51 50 50 50 49 49 48 50 56 60 62 62 63 64 63 62 62 62 64 70 78 84 89 94 94 91 92 94 90 85 83 82 78 72 76 86 86 78 69 64 65 66 61 60 65 70 70 64 63 66 58 45 42 45 51 59 61 56 53 55 56 52 45 40 42 57 64 59 57 54 45 36 29 27 28 28 28 26 23 19 15 14 15 15 16 16
44 49 53 51 51 51 49 50 50 52 57 61 61 62 63 62 61 61 61 60 60 65 73 81 86 92 94 91 91 94 95 90 83 82 79 70 73 86 88 81 75 68 67 72 72 69 67 69 70 67 64 63 57 48 46 50 58 66 68 61 55 57 60 57 54 48 40 47 55 55 56 54 47 41 32 25 28 29 29 29 26 22 18 15 14 14 14 15
46 50 51 50 51 52 50 51 53 54 57 59 59 61 62 61 60 59 58 59 61 64 69 74 80 86 91 90 89 91 95 93 85 81 79 72 74 82 83 78 76 73 72 75 81 82 77 71 69 67 61 55 53 54 52 54 61 67 68 63 56 59 61 58 61 60 51 49 47 45 48 43 41 45 39 31 34 35 34 32 27 25 21 18 16 14 13 14
46 50 51 49 49 51 52 52 53 55 57 56 56 59 61 60 58 55 55 59 64 68 70 70 73 78 85 88 86 87 93 92 85 83 82 77 73 75 78 76 71 73 81 83 84 86 85 77 69 64 61 53 50 53 54 57 65 69 68 63 56 55 57 58 61 61 58 58 53 54 54 38 33 46 45 38 40 42 42 38 30 25 22 20 19 16 14 15
47 51 50 49 51 51 52 53 53 56 56 53 54 56 57 57 55 52 52 56 64 72 73 69 68 71 79 86 84 85 91 93 89 88 87 83 75 71 75 73 65 69 80 85 85 86 89 88 76 69 69 60 51 54 56 58 65 69 69 66 57 52 52 56 60 60 60 62 61 67 61 37 31 44 44 39 42 42 42 41 34 27 22 20 20 18 16 17
49 51 48 48 53 53 52 51 51 53 54 53 54 53 51 52 51 50 49 50 60 71 70 67 67 69 77 83 81 83 91 95 95 92 87 84 79 73 72 69 63 68 78 82 84 86 92 97 87 74 70 65 57 56 57 57 60 62 64 63 57 52 51 54 59 60 63 66 64 64 53 36 37 46 43 41 43 40 40 40 36 31 26 20 19 19 19 18
51 53 50 48 50 50 49 46 46 50 53 54 55 52 49 50 48 47 45 45 55 65 66 65 68 70 73 73 72 79 89 94 96 95 91 87 83 77 72 65 59 66 76 78 82 88 94 99 91 77 68 63 61 60 55 54 56 57 57 57 54 52 53 58 60 57 61 67 62 54 47 41 45 49 47 45 45 43 43 42 37 34 31 26 21 21 23 22
51 54 55 52 50 51 49 46 46 51 52 53 55 52 50 50 48 45 43 42 49 59 64 67 71 72 67 62 65 75 87 94 96 98 95 87 81 78 72 62 57 62 73 78 80 86 94 96 93 88 77 64 61 61 57 54 56 55 54 54 55 53 51 56 59 56 60 68 63 55 53 50 49 52 52 49 46 45 46 45 39 34 34 32 27 23 24 26
51 54 55 54 54 55 54 51 51 54 55 54 55 54 51 51 50 47 44 41 44 54 63 66 70 73 66 62 73 83 86 90 92 95 95 86 79 77 72 64 60 61 71 81 81 81 87 87 88 92 85 70 62 60 58 55 54 53 52 52 53 52 50 53 57 57 59 65 65 62 61 55 50 54 55 50 46 46 48 47 39 33 36 38 31 25 23 24
57 58 57 57 57 56 55 54 54 56 57 55 54 52 50 49 50 49 46 44 44 49 59 64 67 70 66 66 81 90 86 84 85 87 92 89 80 77 76 71 68 67 75 85 83 78 80 80 81 87 84 75 70 68 62 56 55 54 53 50 49 52 54 54 54 52 55 63 66 66 66 57 49 50 51 47 45 45 48 48 40 34 38 39 32 26 24 24
63 65 64 63 64 61 58 56 56 57 57 54 53 51 48 48 48 48 48 48 46 47 56 65 66 67 67 68 79 87 84 85 85 81 85 89 81 77 77 75 72 72 75 82 82 78 79 80 81 84 83 79 81 82 72 61 58 59 56 51 49 49 53 54 51 49 54 63 67 67 66 60 52 51 53 51 48 44 44 49 45 37 38 40 33 28 28 27
65 68 67 67 67 64 62 59 56 58 58 56 55 51 48 48 47 47 48 47 45 46 54 64 66 65 67 68 72 78 78 81 81 75 76 79 75 73 73 71 71 74 73 77 81 78 77 79 77 78 82 83 86 90 82 69 63 61 58 54 49 46 48 53 53 51 55 63 68 67 66 62 57 54 53 50 47 43 43 49 48 40 38 40 36 31 31 31
65 68 69 68 67 65 64 62 59 59 58 56 54 50 49 48 46 48 50 46 44 45 51 61 64 63 67 67 66 67 68 71 72 70 70 71 68 69 70 68 69 72 71 73 77 76 77 80 76 74 78 80 82 85 80 70 63 60 57 54 49 47 50 53 54 56 59 65 67 65 64 62 58 54 50 48 47 45 45 48 47 41 39 41 40 37 35 35